Location: Avully
(45.9633°N, 6.0228°E)
Time: 04:13:33
(UTC+00:00)

Okean 2 - Pass Details

Date: 23 May 2024
Orbit: 541 x 553 km, 82.5° (Epoch: 21 June)

Event Time Altitude Azimuth Distance (km) Brightness Sun altitude
Exits shadow 00:51:02 60° 146° (SSE) 621 3.3 -21.1°
Maximum altitude 00:51:33 70° 97° (E) 579 3.3 -21.0°
Drops below altitude 10° 00:55:31 10° 13° (NNE) 1,815 7.1 -20.8°
Sets 00:57:42 0° 12° (NNE) 2,713 8.4 -20.7°
